Lid_Strength_Index
8 7 8 8 6 6 6 6 6 4 3 2 2 2 2 1 1 1 1 1 0 0 -0 -0 -0 -1 -1
11 10 10 8 7 6 6 5 6 4 3 2 2 2 2 2 2 2 2 2 2 1 1 0 -0 -0 -0
11 9 8 7 8 8 6 6 6 5 3 3 3 3 2 2 2 3 4 4 4 3 2 2 1 1 1
11 11 11 10 8 8 8 7 8 6 5 5 4 3 3 3 3 4 5 5 4 4 3 3 3 2 1
12 11 12 11 10 9 9 8 7 7 8 7 7 6 6 5 4 4 5 5 4 4 4 4 4 3 2
11 11 11 10 9 10 11 10 10 7 8 9 8 7 6 5 4 5 5 5 5 5 5 5 4 4 2
11 11 11 10 10 10 10 10 11 9 9 10 9 9 7 5 5 6 6 6 6 6 6 6 5 4 4
12 12 11 11 11 10 10 11 10 9 9 10 8 9 7 6 5 6 6 6 6 7 6 7 6 5 5
10 10 10 10 10 11 12 13 13 11 10 11 10 10 10 9 7 7 7 7 7 7 7 8 7 7 6
13 13 12 13 11 12 12 14 14 14 11 12 12 11 12 9 10 9 10 9 9 8 8 8 8 9 9
14 14 15 15 14 14 14 13 13 13 11 11 13 12 11 11 11 11 10 10 11 11 10 9 9 9 10
14 15 16 16 16 15 14 14 12 12 11 11 13 12 12 13 13 13 12 10 11 12 12 11 10 10 9
14 14 16 16 16 17 16 14 13 11 11 11 12 11 12 13 13 14 14 14 13 14 13 13 12 12 13
13 14 15 16 16 17 19 18 17 15 13 10 10 11 12 12 13 14 15 15 14 15 15 14 13 13 13
13 14 13 14 14 17 18 19 14 17 17 14 12 10 11 11 13 14 15 15 16 15 15 15 14 15 14
13 13 13 15 17 18 19 17 15 17 20 18 17 16 16 13 10 14 15 16 16 15 15 16 16 16 15
12 13 14 15 13 13 13 14 17 18 18 18 18 16 17 16 13 10 14 15 15 16 15 16 17 16 15